• In Belgien
  • Länderverzeichnis
  • Für 7 Tage
  • Wassertemperatur
  • Satellitenkarten
  • Wetterkarte
  • Widgets
  • user-avatar
    Anmelden

    Stündliche Wetter Rakoszyce

    Heute, 19 Juli, Donnerstag

    Zeit Temperatur Niederschläge Wind Luftdruck Luftfeuchtigkeit
    00:00 +18°C° 0 mm 3 m/S 747 mmHg 93%
    01:00 +18°C° 0 mm 3 m/S 747 mmHg 94%
    02:00 +18°C° 0,1 mm 4 m/S 747 mmHg 94%
    03:00 +18°C° 0,1 mm 4 m/S 747 mmHg 94%
    04:00 +18°C° 0,1 mm 4 m/S 747 mmHg 94%
    05:00 +18°C° 0 mm 4 m/S 747 mmHg 92%
    06:00 +19°C° 0 mm 5 m/S 747 mmHg 90%
    07:00 +19°C° 0 mm 5 m/S 747 mmHg 87%
    08:00 +20°C° 0,1 mm 5 m/S 747 mmHg 85%
    09:00 +21°C° 0,1 mm 5 m/S 747 mmHg 83%
    10:00 +21°C° 0,1 mm 5 m/S 747 mmHg 80%
    11:00 +21°C° 0,2 mm 6 m/S 747 mmHg 82%
    12:00 +21°C° 0,2 mm 6 m/S 747 mmHg 85%
    13:00 +20°C° 0,2 mm 6 m/S 747 mmHg 87%
    14:00 +20°C° 0,1 mm 6 m/S 747 mmHg 87%
    15:00 +20°C° 0,1 mm 6 m/S 747 mmHg 87%
    16:00 +20°C° 0,1 mm 6 m/S 747 mmHg 87%
    17:00 +20°C° 0,1 mm 5 m/S 747 mmHg 88%
    18:00 +19°C° 0,1 mm 5 m/S 747 mmHg 88%
    19:00 +19°C° 0,1 mm 5 m/S 747 mmHg 89%
    20:00 +19°C° 0 mm 4 m/S 747 mmHg 90%
    21:00 +18°C° 0 mm 4 m/S 748 mmHg 91%
    22:00 +18°C° 0 mm 3 m/S 748 mmHg 92%
    23:00 +18°C° 0 mm 3 m/S 748 mmHg 92%

    Morgen, 20 Juli, Freitag

    Zeit Temperatur Niederschläge Wind Luftdruck Luftfeuchtigkeit
    00:00 +17°C° 0 mm 3 m/S 748 mmHg 93%
    01:00 +17°C° 0 mm 3 m/S 748 mmHg 93%
    02:00 +16°C° 0 mm 3 m/S 748 mmHg 92%
    03:00 +14°C° 0 mm 3 m/S 748 mmHg 92%
    04:00 +14°C° 0 mm 3 m/S 748 mmHg 91%
    05:00 +16°C° 0 mm 3 m/S 748 mmHg 85%
    06:00 +17°C° 0 mm 3 m/S 748 mmHg 80%
    07:00 +18°C° 0 mm 3 m/S 748 mmHg 74%
    08:00 +20°C° 0 mm 4 m/S 748 mmHg 68%
    09:00 +21°C° 0 mm 4 m/S 748 mmHg 61%
    10:00 +23°C° 0 mm 4 m/S 748 mmHg 54%
    11:00 +25°C° 0 mm 4 m/S 748 mmHg 51%
    12:00 +25°C° 0 mm 4 m/S 748 mmHg 48%
    13:00 +26°C° 0 mm 4 m/S 748 mmHg 45%
    14:00 +26°C° 0 mm 4 m/S 747 mmHg 45%
    15:00 +26°C° 0 mm 4 m/S 747 mmHg 45%
    16:00 +27°C° 0 mm 3 m/S 747 mmHg 45%
    17:00 +25°C° 0 mm 3 m/S 747 mmHg 51%
    18:00 +24°C° 0 mm 2 m/S 747 mmHg 57%
    19:00 +23°C° 0 mm 1 m/S 747 mmHg 63%
    20:00 +22°C° 0 mm 1 m/S 747 mmHg 65%
    21:00 +20°C° 0 mm 1 m/S 747 mmHg 68%
    22:00 +19°C° 0 mm 1 m/S 747 mmHg 70%
    23:00 +18°C° 0 mm 1 m/S 747 mmHg 72%

    übermorgen, 21 Juli, Samstag

    Zeit Temperatur Niederschläge Wind Luftdruck Luftfeuchtigkeit
    00:00 +18°C° 0 mm 1 m/S 747 mmHg 74%
    01:00 +16°C° 0 mm 1 m/S 747 mmHg 76%
    02:00 +16°C° 0 mm 1 m/S 747 mmHg 77%
    03:00 +16°C° 0 mm 1 m/S 747 mmHg 78%
    04:00 +15°C° 0 mm 1 m/S 747 mmHg 79%
    05:00 +18°C° 0 mm 1 m/S 747 mmHg 75%
    06:00 +20°C° 0 mm 1 m/S 747 mmHg 70%
    07:00 +21°C° 0 mm 1 m/S 747 mmHg 65%
    08:00 +23°C° 0 mm 1 m/S 747 mmHg 60%
    09:00 +24°C° 0 mm 1 m/S 747 mmHg 54%
    10:00 +26°C° 0 mm 1 m/S 747 mmHg 49%
    11:00 +27°C° 0 mm 1 m/S 746 mmHg 47%
    12:00 +27°C° 0 mm 1 m/S 746 mmHg 45%
    13:00 +28°C° 0 mm 1 m/S 746 mmHg 43%
    14:00 +28°C° 0 mm 1 m/S 746 mmHg 43%
    15:00 +28°C° 0 mm 1 m/S 746 mmHg 42%
    16:00 +28°C° 0 mm 1 m/S 745 mmHg 42%
    17:00 +27°C° 0 mm 1 m/S 745 mmHg 47%
    18:00 +25°C° 0 mm 1 m/S 745 mmHg 53%
    19:00 +24°C° 0 mm 1 m/S 745 mmHg 59%
    20:00 +23°C° 0 mm 1 m/S 745 mmHg 62%
    21:00 +21°C° 0 mm 1 m/S 745 mmHg 65%
    22:00 +20°C° 0 mm 1 m/S 746 mmHg 67%
    23:00 +19°C° 0 mm 1 m/S 746 mmHg 70%

    22 Juli, Sonntag

    Zeit Temperatur Niederschläge Wind Luftdruck Luftfeuchtigkeit
    00:00 +19°C° 0 mm 1 m/S 746 mmHg 72%
    01:00 +18°C° 0 mm 1 m/S 746 mmHg 74%
    02:00 +16°C° 0 mm 0 m/S 745 mmHg 76%
    03:00 +16°C° 0 mm 0 m/S 745 mmHg 78%
    04:00 +15°C° 0 mm 0 m/S 745 mmHg 79%
    05:00 +17°C° 0 mm 0 m/S 745 mmHg 75%
    06:00 +20°C° 0 mm 1 m/S 745 mmHg 71%
    07:00 +22°C° 0 mm 1 m/S 746 mmHg 66%
    08:00 +23°C° 0 mm 1 m/S 745 mmHg 61%
    09:00 +25°C° 0 mm 2 m/S 745 mmHg 57%
    10:00 +26°C° 0 mm 2 m/S 745 mmHg 52%
    11:00 +26°C° 0 mm 2 m/S 745 mmHg 48%
    12:00 +27°C° 0 mm 3 m/S 745 mmHg 45%
    13:00 +28°C° 0 mm 3 m/S 745 mmHg 42%
    14:00 +28°C° 0 mm 3 m/S 745 mmHg 42%
    15:00 +28°C° 0 mm 3 m/S 745 mmHg 42%
    16:00 +27°C° 0 mm 4 m/S 744 mmHg 42%
    17:00 +26°C° 0 mm 3 m/S 745 mmHg 48%
    18:00 +25°C° 0 mm 3 m/S 745 mmHg 54%
    19:00 +23°C° 0 mm 2 m/S 745 mmHg 60%
    20:00 +21°C° 0 mm 2 m/S 745 mmHg 62%
    21:00 +20°C° 0 mm 2 m/S 745 mmHg 63%
    22:00 +20°C° 0 mm 1 m/S 746 mmHg 64%
    23:00 +20°C° 0 mm 1 m/S 746 mmHg 65%

    23 Juli, Montag

    Zeit Temperatur Niederschläge Wind Luftdruck Luftfeuchtigkeit
    00:00 +18°C° 0 mm 2 m/S 746 mmHg 66%
    01:00 +18°C° 0 mm 2 m/S 746 mmHg 67%
    02:00 +18°C° 0 mm 2 m/S 746 mmHg 70%
    03:00 +18°C° 0 mm 2 m/S 746 mmHg 73%
    04:00 +18°C° 0 mm 2 m/S 746 mmHg 75%
    05:00 +19°C° 0,1 mm 2 m/S 746 mmHg 76%
    06:00 +19°C° 0,1 mm 3 m/S 747 mmHg 77%
    07:00 +20°C° 0,1 mm 3 m/S 747 mmHg 78%
    08:00 +21°C° 0,5 mm 3 m/S 747 mmHg 75%
    09:00 +23°C° 0,5 mm 4 m/S 747 mmHg 71%
    10:00 +25°C° 0,5 mm 4 m/S 747 mmHg 67%
    11:00 +26°C° 0,4 mm 4 m/S 747 mmHg 63%
    12:00 +26°C° 0,4 mm 4 m/S 747 mmHg 58%
    13:00 +27°C° 0,4 mm 4 m/S 747 mmHg 54%
    14:00 +27°C° 0,1 mm 4 m/S 747 mmHg 53%
    15:00 +27°C° 0,1 mm 4 m/S 747 mmHg 51%
    16:00 +28°C° 0,1 mm 4 m/S 747 mmHg 50%
    17:00 +26°C° 0 mm 3 m/S 747 mmHg 55%
    18:00 +25°C° 0 mm 3 m/S 747 mmHg 59%
    19:00 +24°C° 0 mm 2 m/S 747 mmHg 64%
    20:00 +23°C° 0 mm 2 m/S 747 mmHg 67%
    21:00 +21°C° 0 mm 1 m/S 748 mmHg 70%
    22:00 +20°C° 0 mm 1 m/S 748 mmHg 74%
    23:00 +20°C° 0 mm 1 m/S 748 mmHg 76%

    24 Juli, Dienstag

    Zeit Temperatur Niederschläge Wind Luftdruck Luftfeuchtigkeit
    00:00 +19°C° 0 mm 1 m/S 748 mmHg 79%
    01:00 +18°C° 0 mm 1 m/S 748 mmHg 81%
    02:00 +18°C° 0 mm 1 m/S 748 mmHg 84%
    03:00 +18°C° 0 mm 1 m/S 748 mmHg 87%
    04:00 +16°C° 0 mm 1 m/S 748 mmHg 89%
    05:00 +19°C° 0 mm 1 m/S 749 mmHg 84%
    06:00 +20°C° 0 mm 1 m/S 749 mmHg 78%
    07:00 +22°C° 0 mm 1 m/S 749 mmHg 73%
    08:00 +23°C° 0 mm 1 m/S 749 mmHg 68%
    09:00 +25°C° 0 mm 2 m/S 749 mmHg 62%
    10:00 +26°C° 0 mm 2 m/S 749 mmHg 57%
    11:00 +27°C° 0 mm 2 m/S 749 mmHg 55%
    12:00 +27°C° 0 mm 2 m/S 748 mmHg 53%
    13:00 +28°C° 0 mm 2 m/S 748 mmHg 51%
    14:00 +28°C° 0 mm 2 m/S 748 mmHg 51%
    15:00 +28°C° 0 mm 2 m/S 748 mmHg 51%
    16:00 +29°C° 0 mm 2 m/S 748 mmHg 51%
    17:00 +27°C° 0 mm 2 m/S 748 mmHg 56%
    18:00 +26°C° 0 mm 2 m/S 748 mmHg 61%
    19:00 +25°C° 0 mm 1 m/S 748 mmHg 67%
    20:00 +24°C° 0 mm 1 m/S 748 mmHg 71%
    21:00 +23°C° 0 mm 1 m/S 748 mmHg 74%
    22:00 +22°C° 0 mm 1 m/S 749 mmHg 78%
    23:00 +21°C° 0 mm 1 m/S 749 mmHg 80%
    Mehr zeigen